Station AGCM4 - 9014070 - Algonac, MI Image indicating link to RSS feed of recent meteorological observations for station AGCM4


Conditions at AGCM4 as of
(4:18 pm EDT)
2018 GMT on 05/24/2024:
     

Click on the graph icon in the table below to see a time series plot of the last five days of that observation.

5-day plot - Atmospheric Pressure Atmospheric Pressure (PRES):29.85 in
5-day plot - Air Temperature Air Temperature (ATMP): 78.1 °F
5-day plot - Water Temperature Water Temperature (WTMP): 56.7 °F
NOS Water Level Observation Network Water Level
Previous observations
TIME
(EDT)
5-day plot - Wind Direction
WDIR
 
5-day plot - Wind Speed
WSPD
kts
5-day plot - Wind Gust
GST
kts
5-day plot - Wave Height
WVHT
ft
5-day plot - Dominant Wave Period
DPD
sec
5-day plot - Average Wave Period
APD
sec
5-day plot - Mean Wave Direction
MWD
 
5-day plot - Atmospheric Pressure
PRES
in
5-day plot - Pressure Tendency
PTDY
in
5-day plot - Air Temperature
ATMP
°F
5-day plot - Water Temperature
WTMP
°F
5-day plot - Dew Point
DEWP
°F
5-day plot - Salinity
SAL
psu
5-day plot - Visibility
VIS
nmi
5-day plot - Tide (above MLLW)
TIDE
ft
2024-05-24 04:12 pm-------29.85- 78.8 56.7----
2024-05-24 04:06 pm-------29.86- 77.0 56.7----
2024-05-24 04:00 pm-------29.86-0.05 76.8 56.7----
2024-05-24 03:54 pm-------29.86- 77.2 56.7----
2024-05-24 03:48 pm-------29.85- 74.7 56.5----
2024-05-24 03:42 pm-------29.85- 71.4 56.5----
2024-05-24 03:36 pm-------29.86- 73.6 56.5----
2024-05-24 03:30 pm-------29.86- 74.7 56.5----
2024-05-24 03:24 pm-------29.87- 74.5 56.5----
2024-05-24 03:18 pm-------29.86- 74.3 56.5----
2024-05-24 03:12 pm-------29.86- 74.5 56.5----
2024-05-24 03:06 pm-------29.86- 75.9 56.5----
2024-05-24 03:00 pm-------29.86-0.04 72.1 56.5----
2024-05-24 02:54 pm-------29.86- 75.2 56.5----
2024-05-24 02:48 pm-------29.86- 73.0 56.5----
2024-05-24 02:42 pm-------29.86- 75.4 56.5----
2024-05-24 02:36 pm-------29.86- 74.3 56.5----
2024-05-24 02:30 pm-------29.86- 73.2 56.5----
2024-05-24 02:24 pm-------29.87- 74.7 56.5----
2024-05-24 02:18 pm-------29.86- 74.8 56.5----
2024-05-24 02:12 pm-------29.86- 74.5 56.5----
2024-05-24 02:06 pm-------29.87- 73.2 56.5----
2024-05-24 02:00 pm-------29.87-0.02 74.5 56.5----
2024-05-24 01:54 pm-------29.88- 73.8 56.3----
2024-05-24 01:48 pm-------29.88- 73.0 56.3----
2024-05-24 01:42 pm-------29.88- 74.1 56.3----
2024-05-24 01:36 pm-------29.89- 72.1 56.3----
2024-05-24 01:30 pm-------29.89- 72.1 56.3----
2024-05-24 01:24 pm-------29.89- 72.9 56.3----
2024-05-24 01:18 pm-------29.90- 73.2 56.3----
2024-05-24 01:12 pm-------29.90- 74.8 56.3----
2024-05-24 01:06 pm-------29.91- 72.1 56.3----
2024-05-24 01:00 pm-------29.91+0.00 69.1 56.1----
2024-05-24 12:54 pm-------29.91- 67.6 56.1----
2024-05-24 12:48 pm-------29.91- 68.9 56.1----
2024-05-24 12:42 pm-------29.91- 68.7 56.1----
2024-05-24 12:36 pm-------29.91- 68.4 56.1----
2024-05-24 12:30 pm-------29.91- 68.7 55.9----
2024-05-24 12:24 pm-------29.91- 68.7 55.9----
2024-05-24 12:18 pm-------29.91- 68.4 55.9----
2024-05-24 12:12 pm-------29.90- 67.5 55.9----
2024-05-24 12:06 pm-------29.90- 67.3 55.9----
2024-05-24 12:00 pm-------29.90+0.00 66.6 55.9----
2024-05-24 11:54 am-------29.90- 66.9 55.9----
2024-05-24 11:48 am-------29.90- 65.8 55.9----
2024-05-24 11:42 am-------29.90- 65.8 55.9----
2024-05-24 11:36 am-------29.89- 66.9 55.9----
2024-05-24 11:30 am-------29.90- 65.1 55.9----
2024-05-24 11:24 am-------29.90- 66.2 55.9----
2024-05-24 11:18 am-------29.89- 66.0 55.9----
2024-05-24 11:12 am-------29.89- 65.3 55.8----
2024-05-24 11:06 am-------29.89- 65.1 55.8----
2024-05-24 11:00 am-------29.89+0.00 64.6 55.8----
2024-05-24 10:54 am-------29.90- 64.0 55.8----
2024-05-24 10:48 am-------29.89- 63.1 55.8----
2024-05-24 10:42 am-------29.90- 63.7 55.8----
2024-05-24 10:36 am-------29.90- 62.8 55.8----
2024-05-24 10:30 am-------29.90- 63.1 55.8----
2024-05-24 10:24 am-------29.90- 63.0 55.8----
2024-05-24 10:18 am-------29.90- 63.3 55.8----
2024-05-24 10:12 am-------29.90- 63.0 55.8----
2024-05-24 10:06 am-------29.90- 63.1 55.6----
2024-05-24 10:00 am-------29.91+0.01 64.2 55.6----
2024-05-24 09:54 am-------29.91- 63.5 55.6----
2024-05-24 09:48 am-------29.90- 62.6 55.6----
2024-05-24 09:42 am-------29.90- 62.8 55.6----
2024-05-24 09:36 am-------29.91- 62.2 55.6----
2024-05-24 09:30 am-------29.90- 62.2 55.6----
2024-05-24 09:24 am-------29.90- 61.9 55.6----
2024-05-24 09:18 am-------29.90- 61.9 55.6----
2024-05-24 09:12 am-------29.90- 61.2 55.6----
2024-05-24 09:06 am-------29.90- 61.0 55.6----
2024-05-24 09:00 am-------29.90+0.02 60.4 55.6----
2024-05-24 08:54 am-------29.90- 59.7 55.6----
2024-05-24 08:48 am-------29.90- 59.5 55.6----
2024-05-24 08:42 am-------29.90- 59.0 55.6----
2024-05-24 08:36 am-------29.90- 59.0 55.6----
2024-05-24 08:30 am-------29.90- 58.5 55.6----
2024-05-24 08:24 am-------29.90- 59.0 55.4----
2024-05-24 08:18 am-------29.90- 58.8 55.4----
2024-05-24 08:12 am-------29.90- 58.1 55.4----
2024-05-24 08:06 am-------29.90- 57.7 55.6----
2024-05-24 08:00 am-------29.90+0.02 57.7 55.6----
2024-05-24 07:54 am-------29.90- 57.4 55.6----
2024-05-24 07:48 am-------29.90- 57.0 55.6----
2024-05-24 07:42 am-------29.90- 57.4 55.6----
2024-05-24 07:36 am-------29.90- 57.4 55.6----
2024-05-24 07:30 am-------29.90- 57.2 55.6----
2024-05-24 07:24 am-------29.90- 57.4 55.6----
2024-05-24 07:18 am-------29.90- 57.2 55.6----
2024-05-24 07:12 am-------29.90- 57.0 55.6----
2024-05-24 07:06 am-------29.90- 57.2 55.6----
2024-05-24 07:00 am-------29.90+0.02 57.0 55.6----
2024-05-24 06:54 am-------29.90- 57.2 55.6----
2024-05-24 06:48 am-------29.90- 57.6 55.6----
2024-05-24 06:42 am-------29.90- 57.7 55.6----
2024-05-24 06:36 am-------29.89- 55.8 55.6----
2024-05-24 06:30 am-------29.89- 53.6 55.6----
2024-05-24 06:24 am-------29.88- 53.6 55.6----
2024-05-24 06:18 am-------29.88- 53.2 55.6----
2024-05-24 06:12 am-------29.88- 53.1 55.6----
2024-05-24 06:06 am-------29.88- 53.2 55.6----
2024-05-24 06:00 am-------29.88- 53.6 55.6----
2024-05-24 05:54 am-------29.88- 53.8 55.8----
2024-05-24 05:48 am-------29.88- 53.4 55.8----
2024-05-24 05:42 am-------29.88- 53.1 55.8----
2024-05-24 05:36 am-------29.88- 53.4 55.8----
2024-05-24 05:30 am-------29.88- 54.0 55.8----
2024-05-24 05:24 am-------29.88- 53.6 55.8----
2024-05-24 05:18 am-------29.88- 53.2 55.8----
2024-05-24 05:12 am-------29.88- 53.1 55.8----
2024-05-24 05:06 am-------29.88- 53.2 55.8----
2024-05-24 05:00 am-------29.88+0.01 53.4 55.8----
2024-05-24 04:54 am-------29.88- 53.4 55.8----
2024-05-24 04:48 am-------29.88- 53.8 55.8----
2024-05-24 04:42 am-------29.88- 54.3 55.8----
2024-05-24 04:36 am-------29.88- 54.1 55.8----
2024-05-24 04:30 am-------29.88- 54.1 55.8----
2024-05-24 04:24 am-------29.88- 54.1 55.8----
2024-05-24 04:18 am-------29.88- 54.3 55.8----
2024-05-24 04:12 am-------29.88- 54.5 55.8----
2024-05-24 04:06 am-------29.88- 54.7 55.8----
2024-05-24 04:00 am-------29.88+0.00 55.0 55.8----
2024-05-24 03:54 am-------29.88- 54.9 55.8----
2024-05-24 03:48 am-------29.88- 55.0 55.8----
2024-05-24 03:42 am-------29.88- 54.9 55.8----
2024-05-24 03:36 am-------29.88- 55.0 55.8----
2024-05-24 03:30 am-------29.88- 54.9 55.8----
2024-05-24 03:24 am-------29.88- 55.0 55.9----
2024-05-24 03:18 am-------29.88- 55.2 55.9----
2024-05-24 03:12 am-------29.87- 55.4 55.9----
2024-05-24 02:54 am-------29.87- 55.6 55.9----
2024-05-24 02:48 am-------29.86- 55.6 55.9----
2024-05-24 02:42 am-------29.86- 55.6 55.9----
2024-05-24 02:36 am-------29.86- 55.4 55.9----
2024-05-24 02:30 am-------29.86- 55.6 55.9----
2024-05-24 02:24 am-------29.86- 55.4 55.9----
2024-05-24 02:18 am-------29.87- 55.9 55.9----
2024-05-24 02:12 am-------29.87- 55.8 55.9----
2024-05-24 02:06 am-------29.87- 55.9 55.9----
2024-05-24 02:00 am-------29.87-0.01- 55.9----
2024-05-24 01:54 am-------29.87-- 55.9----
2024-05-24 01:48 am-------29.87- 56.1 55.9----
2024-05-24 01:42 am-------29.87- 56.5 55.9----
2024-05-24 01:36 am-------29.87- 56.8 55.9----
2024-05-24 01:30 am-------29.87- 57.2 55.9----
2024-05-24 01:24 am-------29.87- 57.4 55.9----
2024-05-24 01:18 am-------29.87- 57.6 55.9----
2024-05-24 01:12 am-------29.87- 57.9 55.9----
2024-05-24 01:06 am-------29.88- 58.1 55.9----
2024-05-24 01:00 am-------29.88+0.01 58.3 55.9----
2024-05-24 12:54 am-------29.88- 58.1 55.9----
2024-05-24 12:48 am-------29.88-- 55.9----
2024-05-24 12:42 am-------29.88-- 55.9----
2024-05-24 12:36 am-------29.88-- 55.9----
2024-05-24 12:30 am-------29.88- 58.8 56.1----
2024-05-24 12:24 am-------29.88- 57.9 56.1----
2024-05-24 12:18 am-------29.88- 58.6 56.1----
2024-05-24 12:12 am-------29.88- 58.8 56.1----
2024-05-24 12:06 am-------29.88- 58.5 56.1----
2024-05-24 12:00 am-------29.88+0.03 58.5 56.1----
2024-05-23 11:54 pm-------29.88- 58.5 56.1----
2024-05-23 11:48 pm-------29.88- 58.8 56.1----
2024-05-23 11:42 pm-------29.88- 58.8 56.1----
2024-05-23 11:36 pm-------29.88- 59.4 56.1----
2024-05-23 11:30 pm-------29.88- 59.5 56.1----
2024-05-23 11:24 pm-------29.88- 59.4 56.1----
2024-05-23 11:18 pm-------29.88- 58.8 56.1----
2024-05-23 11:12 pm-------29.88- 59.5 56.1----
2024-05-23 11:06 pm-------29.88- 59.9 56.1----
2024-05-23 11:00 pm-------29.88+0.04 60.3 56.1----
2024-05-23 10:54 pm-------29.88- 60.6 56.1----
2024-05-23 10:48 pm-------29.88- 60.8 56.1----
2024-05-23 10:42 pm-------29.88- 61.2 56.1----
2024-05-23 10:36 pm-------29.88- 62.2 56.1----
2024-05-23 10:30 pm-------29.87- 62.4 56.1----
2024-05-23 10:24 pm-------29.87- 62.1 56.1----
2024-05-23 10:18 pm-------29.87- 62.2 56.1----
2024-05-23 10:12 pm-------29.87- 63.3 56.1----
2024-05-23 10:06 pm-------29.87- 66.0 56.1----
2024-05-23 10:00 pm-------29.87+0.02 66.7 56.1----
2024-05-23 09:54 pm-------29.86- 67.8 56.1----
2024-05-23 09:48 pm-------29.86- 68.2 56.1----
2024-05-23 09:42 pm-------29.86- 68.5 56.1----
2024-05-23 09:36 pm-------29.86- 68.5 56.1----
2024-05-23 09:30 pm-------29.86- 68.4 56.1----
2024-05-23 09:24 pm-------29.86- 68.5 56.1----
2024-05-23 09:18 pm-------29.86- 69.1 56.1----
2024-05-23 09:12 pm-------29.85- 69.6 56.1----
2024-05-23 09:06 pm-------29.85- 70.2 56.1----
2024-05-23 09:00 pm-------29.85+0.00 70.5 56.1----
2024-05-23 08:54 pm-------29.85- 71.4 56.1----
2024-05-23 08:48 pm-------29.85- 72.0 56.1----
2024-05-23 08:42 pm-------29.85- 72.5 56.1----
2024-05-23 08:36 pm-------29.85- 73.0 56.1----
2024-05-23 08:30 pm-------29.84- 73.6 56.1----
2024-05-23 08:24 pm-------29.84- 73.9 56.1----
2024-05-23 08:18 pm-------29.84- 74.3 56.1----
2024-05-23 08:12 pm-------29.84- 74.5 56.1----
2024-05-23 08:06 pm-------29.84- 74.7 56.1----
2024-05-23 08:00 pm-------29.84-0.01 75.2 56.1----
2024-05-23 07:54 pm-------29.84- 75.9 56.1----
2024-05-23 07:48 pm-------29.84- 76.3 56.1----
2024-05-23 07:42 pm-------29.84- 76.6 56.1----
2024-05-23 07:36 pm-------29.84- 76.6 56.1----
2024-05-23 07:30 pm-------29.84- 77.0 56.1----
2024-05-23 07:24 pm-------29.84- 77.4 56.1----
2024-05-23 07:18 pm-------29.84- 77.4 56.1----
2024-05-23 07:12 pm-------29.84- 77.4 56.3----
2024-05-23 07:06 pm-------29.84- 77.5 56.3----
2024-05-23 07:00 pm-------29.84-0.02 77.7 56.3----
2024-05-23 06:54 pm-------29.84- 78.4 56.3----
2024-05-23 06:48 pm-------29.84- 78.6 56.1----
2024-05-23 06:42 pm-------29.84- 78.4 56.1----
2024-05-23 06:36 pm-------29.84- 78.4 56.1----
2024-05-23 06:30 pm-------29.84- 78.3 56.1----
2024-05-23 06:24 pm-------29.84- 78.3 56.1----
2024-05-23 06:18 pm-------29.84- 78.4 56.3----
2024-05-23 06:12 pm-------29.85- 78.1 56.3----
2024-05-23 06:06 pm-------29.85- 78.4 56.3----
2024-05-23 06:00 pm-------29.85-0.02 78.6 56.3----
2024-05-23 05:54 pm-------29.85- 78.1 56.3----
2024-05-23 05:48 pm-------29.85- 78.4 56.3----
2024-05-23 05:42 pm-------29.85- 78.6 56.3----
2024-05-23 05:36 pm-------29.85- 78.8 56.3----
2024-05-23 05:30 pm-------29.85- 79.0 56.3----
2024-05-23 05:24 pm-------29.86- 78.6 56.3----
2024-05-23 05:18 pm-------29.85- 77.5 56.3----
2024-05-23 05:12 pm-------29.85- 77.5 56.3----
2024-05-23 05:06 pm-------29.85- 77.7 56.3----
2024-05-23 05:00 pm-------29.85-0.03 78.1 56.3----
2024-05-23 04:54 pm-------29.86- 76.3 56.3----
2024-05-23 04:48 pm-------29.86- 74.5 56.3----
2024-05-23 04:42 pm-------29.86- 73.8 56.3----
2024-05-23 04:36 pm-------29.86- 71.8 56.3----
2024-05-23 04:30 pm-------29.86- 71.2 56.3----
2024-05-23 04:24 pm-------29.86- 73.4 56.3----
2024-05-23 04:18 pm-------29.86- 73.0 56.5----
2024-05-23 04:12 pm-------29.86- 71.4 56.3----
2024-05-23 04:06 pm-------29.86- 71.6 56.3----
2024-05-23 04:00 pm-------29.86-0.03 71.4 56.3----
2024-05-23 03:54 pm-------29.87- 71.1 56.3----